Location: Bear Trap Landing
(45.2437°N, 67.7928°W)
Time: 14:10:18
(UTC+00:00)

Envisat - Pass Details

Date: 09 March 2021
Orbit: 764 x 766 km, 98.1° (Epoch: 17 April)

Event Time Altitude Azimuth Distance (km) Brightness Sun altitude
Rises 09:36:01 0° 20° (NNE) 3,243 6.7 -14.6°
Reaches altitude 10° 09:38:30 10° 29° (NNE) 2,312 6.0 -14.2°
Maximum altitude 09:43:14 38° 97° (E) 1,160 4.6 -13.3°
Drops below altitude 10° 09:47:55 10° 165° (SSE) 2,294 5.6 -12.5°
Sets 09:50:22 0° 173° (S) 3,215 6.2 -12.1°
